GW1092 Weather Reports


Display with metric or nautical units.
time (UTC)temp
F
wind
direction
speed
MPH
gust
MPH
rain 1hr
in
rain 24hr
in
rain mn
in
humidity
%
barometer
mb
20240722055407 75 44 0.0 0.0 0.00 0.00 0.00 93 1016.9
20240722054905 75 43 0.0 0.0 0.00 0.00 0.00 93 1016.9
20240722054402 75 44 0.0 0.0 0.00 0.00 0.00 93 1016.9
20240722053902 75 44 0.0 0.0 0.00 0.00 0.00 93 1017.0
20240722053400 75 45 0.0 0.0 0.00 0.00 0.00 93 1016.8
20240722052900 75 43 0.0 0.0 0.00 0.00 0.00 93 1017.1
20240722052359 75 41 0.0 0.0 0.00 0.00 0.00 93 1017.3
20240722051857 75 41 0.0 0.0 0.00 0.00 0.00 93 1017.0
20240722051356 75 41 0.0 0.0 0.00 0.00 0.00 93 1017.1
20240722050854 75 39 0.0 0.0 0.00 0.00 0.00 93 1017.3
20240722050353 75 42 0.0 0.0 0.00 0.00 0.00 93 1017.2
20240722045852 75 52 0.0 0.0 0.00 0.00 0.00 93 1017.2
20240722045351 75 46 0.0 0.0 0.00 0.00 0.00 93 1017.2
20240722044850 75 41 0.0 0.0 0.00 0.00 0.00 93 1017.1
20240722044346 75 41 0.0 0.0 0.00 0.00 0.00 93 1017.4
20240722043845 75 45 0.0 0.0 0.00 0.00 0.00 93 1017.2
20240722043341 75 42 0.0 0.0 0.00 0.00 0.00 93 1017.4
20240722042840 75 43 0.0 0.0 0.00 0.00 0.00 93 1017.4
20240722042335 75 42 0.0 0.0 0.00 0.00 0.00 93 1017.5
20240722041836 75 44 0.0 0.0 0.00 0.00 0.00 93 1017.4
20240722041335 75 42 0.0 0.0 0.00 0.00 0.00 93 1017.2
20240722040834 75 43 0.0 0.0 0.00 0.00 0.00 93 1017.3
20240722040331 75 44 0.0 0.0 0.00 0.00 0.00 93 1017.4
20240722035831 75 46 0.0 0.0 0.00 0.00 0.00 92 1017.2
20240722035330 75 44 0.0 0.0 0.00 0.00 0.00 92 1017.3
20240722034828 76 44 0.0 0.0 0.00 0.00 0.00 92 1017.4
20240722034326 76 44 0.0 0.0 0.00 0.00 0.00 92 1017.3
20240722033825 76 44 0.0 0.0 0.00 0.00 0.00 92 1017.3
20240722033322 76 42 0.0 0.0 0.00 0.00 0.00 92 1017.5
20240722032822 76 42 0.0 0.0 0.00 0.00 0.00 92 1017.4
20240722032318 76 45 0.0 0.0 0.00 0.00 0.00 92 1017.5
20240722031817 76 44 0.0 0.0 0.00 0.00 0.00 92 1017.6
20240722031316 76 44 0.0 0.0 0.00 0.00 0.00 91 1017.6
20240722030813 76 42 0.0 0.0 0.00 0.00 0.00 91 1017.6
20240722030311 76 42 0.0 0.0 0.00 0.00 0.00 91 1017.7
20240722025811 76 45 0.0 0.0 0.00 0.00 0.00 91 1017.5
20240722025308 76 45 0.0 0.0 0.00 0.00 0.00 91 1017.7
20240722024807 76 44 0.0 0.0 0.00 0.00 0.00 91 1017.6
20240722024305 76 44 0.0 0.0 0.00 0.00 0.00 90 1017.8
20240722023804 76 44 0.0 0.0 0.00 0.00 0.00 90 1017.7
20240722023301 77 45 0.0 0.0 0.00 0.00 0.00 90 1017.7
20240722022800 77 43 0.0 0.0 0.00 0.00 0.00 90 1017.5
20240722022257 77 43 0.0 0.0 0.00 0.00 0.00 90 1017.4
20240722021757 77 48 0.0 0.0 0.00 0.00 0.00 90 1017.5
20240722021255 77 43 0.0 0.0 0.00 0.00 0.00 90 1017.4
20240722020753 77 44 0.0 0.0 0.00 0.00 0.00 89 1017.4
20240722020251 77 54 0.0 0.0 0.00 0.00 0.00 89 1017.2
20240722015751 77 47 0.0 0.0 0.00 0.00 0.00 89 1017.4
20240722015248 77 44 0.0 0.0 0.00 0.00 0.00 89 1017.2
20240722014748 77 44 0.0 0.0 0.00 0.00 0.00 89 1017.3
20240722014245 77 44 0.0 0.0 0.00 0.00 0.00 88 1017.3
20240722013738 77 49 0.0 0.0 0.00 0.00 0.00 88 1017.1
20240722013235 77 46 0.0 0.0 0.00 0.00 0.00 88 1017.3
20240722012734 77 49 0.0 0.0 0.00 0.00 0.00 88 1017.2
20240722012233 77 48 0.0 0.0 0.00 0.00 0.00 88 1017.2
20240722011733 78 46 0.0 0.0 0.00 0.00 0.00 87 1017.1
20240722011231 78 46 0.0 0.0 0.00 0.00 0.00 87 1016.9
20240722010730 78 44 0.0 0.0 0.00 0.00 0.00 87 1016.7
20240722010228 78 44 0.0 0.0 0.00 0.00 0.00 86 1016.9
20240722005725 78 48 0.0 0.0 0.00 0.00 0.00 86 1016.7
20240722005224 78 46 0.0 0.0 0.00 0.00 0.00 86 1016.6
20240722004713 78 48 0.0 0.0 0.00 0.00 0.00 85 1016.3
20240722004212 79 49 0.0 0.0 0.00 0.00 0.00 85 1016.4
20240722003710 79 50 0.0 0.0 0.00 0.00 0.00 85 1016.1
20240722003209 79 48 0.0 0.0 0.00 0.00 0.00 84 1016.1
20240722002706 79 47 0.0 0.0 0.00 0.00 0.00 84 1016.1
20240722002203 80 46 0.0 0.0 0.00 0.00 0.00 83 1016.1
20240722001701 80 46 0.0 0.0 0.00 0.00 0.00 83 1016.1
20240722001200 80 45 0.0 0.0 0.00 0.00 0.00 82 1016.2
20240722000655 80 50 0.0 0.0 0.00 0.00 0.00 81 1016.1
20240722000151 81 51 0.0 0.0 0.00 0.00 0.00 81 1016.0
20240721235647 81 45 0.0 0.0 0.00 0.00 0.00 80 1016.0
20240721235144 82 51 0.0 0.0 0.00 0.00 0.00 79 1015.9
20240721234642 82 48 0.0 0.0 0.00 0.00 0.00 78 1015.8
20240721234141 83 44 0.0 0.0 0.00 0.00 0.00 77 1015.5
20240721233640 83 47 0.0 0.0 0.00 0.00 0.00 76 1015.7
20240721233138 83 45 0.0 0.0 0.00 0.00 0.00 76 1015.6
20240721232638 84 58 0.0 0.0 0.00 0.00 0.00 76 1015.6
20240721232137 85 46 0.0 0.0 0.00 0.00 0.00 75 1015.7
20240721231635 86 50 0.0 0.0 0.00 0.00 0.00 73 1015.7
20240721231133 86 47 0.0 0.0 0.00 0.00 0.00 72 1015.5
20240721230631 87 46 0.0 0.0 0.00 0.00 0.00 71 1015.4
20240721230131 85 46 0.0 0.0 0.00 0.00 0.00 73 1015.6
20240721225630 84 48 0.0 0.0 0.00 0.00 0.00 74 1015.6
20240721225128 85 45 0.0 0.0 0.00 0.00 0.00 73 1015.6
20240721224626 86 48 0.0 0.0 0.00 0.00 0.00 72 1015.7
20240721224125 87 45 0.0 0.0 0.00 0.00 0.00 71 1015.7
20240721223623 89 51 0.0 0.0 0.00 0.00 0.00 69 1015.6
20240721223123 93 55 0.0 0.0 0.00 0.00 0.00 63 1015.6
20240721222622 94 58 0.0 0.0 0.00 0.00 0.00 63 1015.5
20240721222120 93 52 0.0 0.0 0.00 0.00 0.00 63 1015.7
20240721221619 95 52 0.0 0.0 0.00 0.00 0.00 61 1015.4
20240721221117 95 50 0.0 0.0 0.00 0.00 0.00 62 1015.7
20240721220613 95 51 1.0 1.0 0.00 0.00 0.00 60 1015.7
20240721220110 94 37 0.0 0.0 0.00 0.00 0.00 62 1015.6
20240721215608 94 53 1.0 1.0 0.00 0.00 0.00 61 1015.6
20240721215106 95 89 1.0 1.0 0.00 0.00 0.00 60 1015.6
20240721214605 95 51 0.0 1.0 0.00 0.00 0.00 60 1015.9
20240721214106 94 47 0.0 0.0 0.00 0.00 0.00 63 1015.6
20240721213604 94 60 1.0 1.0 0.00 0.00 0.00 61 1015.9
20240721213101 95 51 0.0 0.0 0.00 0.00 0.00 63 1015.7
20240721212600 94 50 0.0 0.0 0.00 0.00 0.00 64 1015.6
20240721212057 94 51 0.0 1.0 0.00 0.00 0.00 65 1015.8
20240721211557 93 48 0.0 0.0 0.00 0.00 0.00 65 1015.7
20240721211055 92 45 0.0 0.0 0.00 0.00 0.00 68 1015.7
20240721210553 92 43 0.0 0.0 0.00 0.00 0.00 68 1015.8
20240721210052 89 40 0.0 0.0 0.00 0.00 0.00 71 1015.7
20240721205548 87 41 0.0 0.0 0.00 0.00 0.00 72 1015.7
20240721205044 87 47 0.0 1.0 0.00 0.00 0.00 71 1015.9
20240721204543 88 49 0.0 0.0 0.00 0.00 0.00 70 1015.9
20240721204042 89 43 0.0 0.0 0.00 0.00 0.00 70 1015.9
20240721203541 90 39 0.0 0.0 0.00 0.00 0.00 68 1016.0
20240721203040 89 42 0.0 1.0 0.00 0.00 0.00 69 1016.0
20240721202536 89 58 0.0 0.0 0.00 0.00 0.00 70 1016.1
20240721202033 88 40 0.0 0.0 0.00 0.00 0.00 72 1016.1
20240721201516 87 39 0.0 0.0 0.00 0.00 0.00 72 1016.1
20240721201015 87 39 0.0 0.0 0.00 0.00 0.00 73 1016.1
20240721200513 87 36 0.0 0.0 0.00 0.00 0.00 74 1015.9
20240721200012 87 52 0.0 0.0 0.00 0.00 0.00 75 1015.9
20240721195508 86 38 0.0 0.0 0.00 0.00 0.00 75 1016.1
20240721195008 86 32 0.0 0.0 0.00 0.00 0.00 75 1016.1
20240721194505 86 38 0.0 0.0 0.00 0.00 0.00 76 1016.1
20240721194003 86 36 0.0 0.0 0.00 0.00 0.00 75 1016.1
20240721193500 87 37 0.0 0.0 0.00 0.00 0.00 75 1016.3
20240721192959 87 37 0.0 0.0 0.00 0.00 0.00 75 1016.3
20240721192457 87 41 0.0 0.0 0.00 0.00 0.00 73 1016.2
20240721191955 87 41 0.0 0.0 0.00 0.00 0.00 75 1016.3
20240721191454 87 39 0.0 0.0 0.00 0.00 0.00 75 1016.1
20240721190953 87 41 0.0 0.0 0.00 0.00 0.00 73 1016.1
20240721190450 87 38 0.0 0.0 0.00 0.00 0.00 73 1016.3
20240721185949 88 38 0.0 0.0 0.00 0.00 0.00 72 1016.4
20240721185448 88 38 0.0 0.0 0.00 0.00 0.00 71 1016.4
20240721184947 88 38 0.0 0.0 0.00 0.00 0.00 72 1016.4
20240721184446 88 49 0.0 0.0 0.00 0.00 0.00 72 1016.4
20240721183946 88 40 0.0 0.0 0.00 0.00 0.00 72 1016.6
20240721183445 89 44 0.0 0.0 0.00 0.00 0.00 70 1016.5
20240721182944 89 58 0.0 0.0 0.00 0.00 0.00 71 1016.3
20240721182440 90 41 0.0 0.0 0.00 0.00 0.00 67 1016.5
20240721181938 91 36 0.0 0.0 0.00 0.00 0.00 66 1016.5
20240721181437 89 25 0.0 0.0 0.00 0.00 0.00 66 1016.6
20240721180934 89 36 0.0 0.0 0.00 0.00 0.00 68 1016.6
20240721180432 88 168 2.0 2.0 0.00 0.00 0.00 68 1016.7
20240721175932 86 37 0.0 0.0 0.00 0.00 0.00 70 1016.7
20240721175429 87 59 1.0 1.0 0.00 0.00 0.00 69 1016.6
20240721174927 88 42 0.0 0.0 0.00 0.00 0.00 68 1016.8
20240721174427 88 38 0.0 0.0 0.00 0.00 0.00 69 1016.6
20240721173925 88 39 0.0 0.0 0.00 0.00 0.00 69 1016.7
20240721173423 88 40 0.0 0.0 0.00 0.00 0.00 68 1016.7
20240721172923 88 46 0.0 0.0 0.00 0.00 0.00 67 1016.6
20240721172421 88 21 1.0 1.0 0.00 0.00 0.00 66 1016.9
20240721171920 87 39 0.0 1.0 0.00 0.00 0.00 66 1016.3
20240721171420 87 28 0.0 0.0 0.00 0.00 0.00 64 1016.8
20240721170918 89 205 1.0 2.0 0.00 0.00 0.00 62 1016.8
20240721170409 90 27 1.0 1.0 0.00 0.00 0.00 62 1016.5
20240721165909 90 46 0.0 0.0 0.00 0.00 0.00 62 1016.7
20240721165408 90 44 0.0 1.0 0.00 0.00 0.00 63 1016.8
20240721164906 89 41 0.0 1.0 0.00 0.00 0.00 63 1016.8
20240721164404 88 40 0.0 0.0 0.00 0.00 0.00 65 1016.9
20240721163904 87 37 0.0 0.0 0.00 0.00 0.00 66 1016.8
20240721163403 87 39 0.0 0.0 0.00 0.00 0.00 67 1016.8
20240721162900 87 32 0.0 0.0 0.00 0.00 0.00 69 1017.0
20240721162400 87 171 3.0 3.0 0.00 0.00 0.00 66 1016.8
20240721161859 87 36 1.0 1.0 0.00 0.00 0.00 65 1016.7
20240721161357 87 34 0.0 0.0 0.00 0.00 0.00 68 1016.9
20240721160856 87 76 0.0 1.0 0.00 0.00 0.00 67 1017.1
20240721160354 86 87 1.0 2.0 0.00 0.00 0.00 66 1017.1
20240721155853 87 46 0.0 0.0 0.00 0.00 0.00 68 1017.1
20240721155352 86 33 0.0 0.0 0.00 0.00 0.00 68 1017.0
20240721154850 86 7 1.0 1.0 0.00 0.00 0.00 67 1017.0
20240721154348 86 60 0.0 0.0 0.00 0.00 0.00 68 1017.1
20240721153846 86 5 1.0 1.0 0.00 0.00 0.00 68 1016.9
20240721153345 86 24 0.0 0.0 0.00 0.00 0.00 71 1017.1
20240721152843 87 33 0.0 1.0 0.00 0.00 0.00 67 1017.0
20240721152339 86 40 1.0 1.0 0.00 0.00 0.00 71 1016.8
20240721151838 85 38 1.0 2.0 0.00 0.00 0.00 71 1017.1
20240721151337 86 19 0.0 1.0 0.00 0.00 0.00 69 1017.0
20240721150836 86 28 1.0 1.0 0.00 0.00 0.00 72 1017.1
20240721150331 85 51 0.0 0.0 0.00 0.00 0.00 74 1016.9
20240721145829 83 31 0.0 0.0 0.00 0.00 0.00 77 1017.0
20240721145327 82 258 1.0 2.0 0.00 0.00 0.00 76 1017.2
20240721144826 83 32 0.0 0.0 0.00 0.00 0.00 76 1017.0
20240721144323 80 252 1.0 2.0 0.00 0.00 0.00 78 1017.1
20240721143821 80 173 2.0 3.0 0.00 0.00 0.00 78 1017.5
20240721143316 80 32 0.0 0.0 0.00 0.00 0.00 78 1017.4
20240721142815 80 40 0.0 0.0 0.00 0.00 0.00 79 1017.1
20240721142310 80 44 1.0 2.0 0.00 0.00 0.00 79 1017.2
20240721141810 80 358 2.0 2.0 0.00 0.00 0.00 80 1017.2
20240721141303 80 359 1.0 1.0 0.00 0.00 0.00 81 1017.0
20240721140748 79 107 1.0 2.0 0.00 0.00 0.00 80 1017.4
20240721140245 80 17 0.0 1.0 0.00 0.00 0.00 81 1017.1
20240721135745 79 7 0.0 0.0 0.00 0.00 0.00 81 1016.9
20240721135242 79 225 1.0 2.0 0.00 0.00 0.00 81 1017.0
20240721134741 79 306 1.0 1.0 0.00 0.00 0.00 81 1017.1
20240721134240 79 36 0.0 0.0 0.00 0.00 0.00 83 1017.1
20240721133738 79 22 0.0 1.0 0.00 0.00 0.00 82 1016.8
20240721133235 79 33 0.0 0.0 0.00 0.00 0.00 82 1017.1
20240721132733 80 37 0.0 0.0 0.00 0.00 0.00 83 1017.0
20240721132224 79 38 0.0 1.0 0.00 0.00 0.00 84 1017.0
20240721131723 78 42 1.0 1.0 0.00 0.00 0.00 84 1016.9
20240721131221 79 33 0.0 0.0 0.00 0.00 0.00 86 1016.8
20240721130720 78 46 0.0 0.0 0.00 0.00 0.00 87 1017.1
20240721130215 77 22 1.0 1.0 0.00 0.00 0.00 87 1017.0
20240721125715 77 35 0.0 0.0 0.00 0.00 0.00 88 1017.0
20240721125212 77 354 1.0 2.0 0.00 0.00 0.00 88 1017.1
20240721124711 77 34 0.0 0.0 0.00 0.00 0.00 90 1017.0
20240721124210 76 39 0.0 0.0 0.00 0.00 0.00 90 1017.1
20240721123709 76 342 1.0 1.0 0.00 0.00 0.00 91 1017.2
20240721123206 76 237 2.0 3.0 0.00 0.00 0.00 91 1017.0
20240721122702 75 210 2.0 2.0 0.00 0.00 0.00 92 1016.8
20240721122200 75 49 1.0 1.0 0.00 0.00 0.00 92 1016.9
20240721121658 75 13 2.0 2.0 0.00 0.00 0.00 93 1016.9
20240721121156 75 24 0.0 0.0 0.00 0.00 0.00 93 1017.1
20240721120656 75 32 0.0 0.0 0.00 0.00 0.00 93 1017.0
20240721120151 74 84 0.0 1.0 0.00 0.00 0.00 94 1016.9
20240721115649 74 35 0.0 0.0 0.00 0.00 0.00 94 1016.9
20240721115147 74 332 1.0 1.0 0.00 0.00 0.00 95 1017.0
20240721114646 74 37 0.0 1.0 0.00 0.00 0.00 95 1016.8
20240721114142 74 36 0.0 0.0 0.00 0.00 0.00 95 1017.1
20240721113640 74 70 1.0 1.0 0.00 0.00 0.00 96 1016.8
20240721113140 73 25 0.0 0.0 0.00 0.00 0.00 96 1016.9
20240721112639 73 186 3.0 3.0 0.00 0.00 0.00 96 1016.8
20240721112138 73 22 0.0 1.0 0.00 0.00 0.00 96 1016.8
20240721111636 73 19 1.0 1.0 0.00 0.00 0.00 96 1016.7
20240721111135 73 32 0.0 0.0 0.00 0.00 0.00 96 1016.5
20240721110635 73 345 1.0 2.0 0.00 0.00 0.00 96 1016.7
20240721110133 73 36 0.0 0.0 0.00 0.00 0.00 96 1016.6
20240721105629 73 94 1.0 1.0 0.00 0.00 0.00 96 1016.6
20240721105127 73 35 0.0 0.0 0.00 0.00 0.00 96 1016.3
20240721104626 73 41 0.0 0.0 0.00 0.00 0.00 96 1016.5
20240721104122 73 35 0.0 0.0 0.00 0.00 0.00 96 1016.3
20240721103621 72 43 0.0 0.0 0.00 0.00 0.00 96 1016.5
20240721103120 72 34 0.0 0.0 0.00 0.00 0.00 96 1016.4
20240721102617 72 20 0.0 0.0 0.00 0.00 0.00 96 1016.4
20240721102117 72 34 0.0 0.0 0.00 0.00 0.00 96 1016.4
20240721101615 72 39 0.0 0.0 0.00 0.00 0.00 96 1016.0
20240721101113 72 27 0.0 0.0 0.00 0.00 0.00 96 1016.2
20240721100613 72 33 0.0 0.0 0.00 0.00 0.00 96 1016.1
20240721100111 72 40 0.0 0.0 0.00 0.00 0.00 96 1016.0
20240721095608 72 40 0.0 0.0 0.00 0.00 0.00 95 1016.0
20240721095106 72 40 0.0 0.0 0.00 0.00 0.00 95 1015.9
20240721094605 72 40 0.0 0.0 0.00 0.00 0.00 95 1015.9
20240721094103 72 40 0.0 0.0 0.00 0.00 0.00 95 1015.9
20240721093600 73 40 0.0 0.0 0.00 0.00 0.00 95 1015.9
20240721093058 73 33 0.0 0.0 0.00 0.00 0.00 95 1015.7
20240721092557 73 40 0.0 0.0 0.00 0.00 0.00 95 1015.6
20240721092055 73 42 0.0 0.0 0.00 0.00 0.00 95 1015.5
20240721091554 73 39 0.0 0.0 0.00 0.00 0.00 95 1015.6
20240721091053 73 36 0.0 0.0 0.00 0.00 0.00 95 1015.6
20240721090552 73 3 0.0 0.0 0.00 0.00 0.00 95 1015.7
20240721090052 73 39 0.0 0.0 0.00 0.00 0.00 95 1015.4
20240721085549 73 39 0.0 0.0 0.00 0.00 0.00 95 1015.5
20240721085048 73 34 0.0 0.0 0.00 0.00 0.00 95 1015.5
20240721084545 73 55 0.0 0.0 0.00 0.00 0.00 95 1015.2
20240721084043 73 48 0.0 0.0 0.00 0.00 0.00 95 1015.3
20240721083541 73 87 1.0 1.0 0.00 0.00 0.00 95 1015.1
20240721083038 73 65 1.0 1.0 0.00 0.00 0.00 95 1015.3
20240721082535 73 39 0.0 0.0 0.00 0.00 0.00 94 1015.4
20240721082033 73 42 0.0 0.0 0.00 0.00 0.00 94 1015.2
20240721081531 74 38 0.0 0.0 0.00 0.00 0.00 94 1015.2
20240721081030 74 42 0.0 0.0 0.00 0.00 0.00 94 1015.1
20240721080527 74 52 0.0 0.0 0.00 0.00 0.00 94 1015.3
20240721080025 74 34 0.0 1.0 0.00 0.00 0.00 94 1015.3
20240721075522 74 36 1.0 1.0 0.00 0.00 0.00 94 1015.3
20240721075021 74 32 0.0 0.0 0.00 0.00 0.00 94 1015.3
20240721074519 74 300 1.0 2.0 0.00 0.00 0.00 94 1015.3
20240721074018 74 39 0.0 0.0 0.00 0.00 0.00 94 1015.1
20240721073518 74 283 0.0 1.0 0.00 0.00 0.00 94 1015.3
20240721073016 74 144 1.0 1.0 0.00 0.00 0.00 94 1015.2
20240721072515 74 40 0.0 1.0 0.00 0.00 0.00 94 1015.2
20240721072014 74 91 1.0 1.0 0.00 0.00 0.00 94 1015.2
20240721071510 74 25 0.0 0.0 0.00 0.00 0.00 95 1015.2
20240721071008 74 36 0.0 0.0 0.00 0.00 0.00 95 1015.4
20240721070505 74 37 0.0 0.0 0.00 0.00 0.00 95 1015.3
20240721070005 75 23 1.0 1.0 0.00 0.00 0.00 95 1015.6
20240721065501 75 335 1.0 1.0 0.00 0.00 0.00 95 1015.5
20240721064958 75 357 0.0 1.0 0.00 0.00 0.00 95 1015.6
20240721064455 75 38 1.0 2.0 0.00 0.00 0.00 96 1015.6
20240721063955 75 51 1.0 1.0 0.00 0.00 0.00 96 1015.5
20240721063451 75 70 1.0 1.0 0.00 0.00 0.00 96 1015.7
20240721062949 75 17 0.0 1.0 0.00 0.00 0.00 96 1015.5
20240721062448 75 226 1.0 2.0 0.00 0.00 0.00 96 1015.3
20240721061946 75 25 1.0 1.0 0.00 0.00 0.00 96 1015.5
20240721061446 75 17 1.0 1.0 0.00 0.00 0.00 96 1015.4
20240721060945 75 34 1.0 2.0 0.00 0.00 0.00 96 1015.5
20240721060443 75 253 1.0 2.0 0.00 0.00 0.00 96 1015.5
20240721055943 75 31 0.0 1.0 0.00 0.00 0.00 96 1015.6